Weather History for Thomson, GA

Change the Weather History Date:

Thursday, February 14, 2013

  Actual Average (KDBN) Record (KDBN)
Temperature  
Mean Temperature 40 °F -  
Max Temperature 51 °F 60 °F 82 °F (1938)
Min Temperature 30 °F 33 °F 20 °F (1971)
Degree Days  
Heating Degree Days 24    
Moisture  
Dew Point 38 °F    
Average Humidity 90    
Maximum Humidity 100    
Minimum Humidity 65    
Precipitation  
Precipitation 0.00 in - - ()
Sea Level Pressure  
Sea Level Pressure 30.07 in    
Wind  
Wind Speed 2 mph (West)    
Max Wind Speed 7 mph    
Max Gust Speed -    
Visibility 9 miles    
Events      
Averages and records for this station are not official NWS values.
T = Trace of Precipitation, MM = Missing Value Source: NWS Daily Summary

Daily Weather History Graph

Daily Weather History Graph

Search for Another Location

Airport:

Trip Planner

Search our weather history database for the weather conditions in past years. The results will help you decide how hot, cold, wet, or windy it might be!

Date:

Astronomy

Feb. 14, 2013 Rise Set
Actual Time 7:14 AM EST 6:14 PM EST
Civil Twilight 6:49 AM EST 6:39 PM EST
Nautical Twilight 6:20 AM EST 7:08 PM EST
Astronomical Twilight 5:51 AM EST 7:37 PM EST
Moon 9:32 AM EST (2/14) 10:57 PM EST (2/14)
Length of Visible Light 11h 50m
Length of Day
10h 59m
Waxing Crescent, 21% of the Moon is Illuminated
Feb 14
Waxing Crescent
Feb 17
First Quarter
Feb 25
Full
Mar 4
Last Quarter
Mar 11
New

Hourly Weather History & Observations

Time (EST) Temp. Windchill Dew Point Humidity Pressure Visibility Wind Dir Wind Speed Gust Speed Precip Events Conditions
12:15 AM 43.3 °F 40.7 °F 40.3 °F 89% 29.96 in 10.0 mi West 4.6 mph - N/A   Clear
12:55 AM 42.8 °F 38.6 °F 39.2 °F 87% 29.97 in 10.0 mi WNW 6.9 mph - N/A   Clear
1:15 AM 41.9 °F 37.5 °F 38.7 °F 88% 29.97 in 10.0 mi WNW 6.9 mph - N/A   Clear
1:35 AM 41.5 °F 37.1 °F 38.3 °F 88% 29.98 in 10.0 mi WNW 6.9 mph - N/A   Clear
1:55 AM 41.2 °F 39.2 °F 37.9 °F 88% 29.98 in 10.0 mi West 3.5 mph - N/A   Clear
2:15 AM 40.1 °F 36.9 °F 37.9 °F 92% 29.99 in 10.0 mi West 4.6 mph - N/A   Clear
2:35 AM 39.6 °F 36.3 °F 37.4 °F 92% 29.99 in 10.0 mi West 4.6 mph - N/A   Clear
2:55 AM 38.3 °F 35.9 °F 36.9 °F 95% 30.00 in 10.0 mi West 3.5 mph - N/A   Clear
3:15 AM 37.6 °F 34.0 °F 36.7 °F 97% 30.00 in 10.0 mi West 4.6 mph - N/A   Clear
3:35 AM 36.7 °F 34.1 °F 36.5 °F 99% 30.00 in 10.0 mi West 3.5 mph - N/A   Clear
3:55 AM 36.7 °F - 36.1 °F 98% 30.00 in 10.0 mi Calm Calm - N/A   Clear
4:15 AM 35.6 °F - 35.6 °F 100% 30.00 in 10.0 mi Calm Calm - N/A   Clear
4:35 AM 34.7 °F - 34.7 °F 100% 30.01 in 10.0 mi Calm Calm - N/A   Clear
4:55 AM 34.0 °F - 34.0 °F 100% 30.01 in 10.0 mi Calm Calm - N/A   Clear
5:15 AM 33.4 °F - 33.4 °F 100% 30.01 in 7.0 mi Calm Calm - N/A   Clear
5:35 AM 32.9 °F - 32.9 °F 100% 30.01 in 5.0 mi Calm Calm - N/A   Clear
5:55 AM 32.2 °F - 32.2 °F 100% 30.03 in 5.0 mi Calm Calm - N/A   Clear
6:15 AM 32.0 °F - 32.0 °F 100% 30.05 in 5.0 mi Calm Calm - N/A   Clear
6:35 AM 32.0 °F - 32.0 °F 100% 30.06 in 5.0 mi Calm Calm - N/A   Clear
6:55 AM 32.0 °F - 32.0 °F 100% 30.07 in 5.0 mi Calm Calm - N/A   Clear
7:15 AM 30.6 °F - 30.6 °F 100% 30.08 in 5.0 mi Calm Calm - N/A   Clear
7:35 AM 31.6 °F - 31.6 °F 100% 30.07 in 2.5 mi Calm Calm - N/A   Clear
7:55 AM 32.2 °F 28.9 °F 32.2 °F 100% 30.07 in 3.0 mi NW 3.5 mph - N/A   Clear
8:15 AM 32.5 °F - 32.5 °F 100% 30.08 in 4.0 mi Calm Calm - N/A   Clear
8:35 AM 34.2 °F - 34.2 °F 100% 30.10 in 7.0 mi Calm Calm - N/A   Clear
8:55 AM 35.1 °F - 35.1 °F 100% 30.10 in 10.0 mi Calm Calm - N/A   Clear
9:15 AM 36.0 °F 33.3 °F 36.0 °F 100% 30.11 in 7.0 mi WNW 3.5 mph - N/A   Clear
9:35 AM 37.0 °F 33.3 °F 36.9 °F 99% 30.12 in 10.0 mi WNW 4.6 mph - N/A   Clear
9:55 AM 38.1 °F - 36.9 °F 95% 30.12 in 10.0 mi Calm Calm - N/A   Clear
10:15 AM 39.2 °F 37.0 °F 37.4 °F 93% 30.13 in 10.0 mi WNW 3.5 mph - N/A   Clear
10:35 AM 40.3 °F 38.2 °F 38.1 °F 92% 30.13 in 10.0 mi West 3.5 mph - N/A   Clear
10:55 AM 41.2 °F 39.2 °F 38.3 °F 89% 30.13 in 10.0 mi WNW 3.5 mph - N/A   Clear
11:15 AM 42.6 °F 40.9 °F 38.8 °F 86% 30.14 in 10.0 mi West 3.5 mph - N/A   Clear
11:35 AM 44.1 °F - 39.0 °F 82% 30.14 in 10.0 mi Calm Calm - N/A   Clear
11:55 AM 44.6 °F - 38.3 °F 79% 30.13 in 10.0 mi Calm Calm - N/A   Clear
12:15 PM 45.3 °F - 37.8 °F 75% 30.12 in 10.0 mi Calm Calm - N/A   Clear
12:35 PM 46.4 °F - 38.1 °F 73% 30.11 in 10.0 mi Calm Calm - N/A   Clear
12:55 PM 46.6 °F - 38.8 °F 74% 30.08 in 10.0 mi Calm Calm - N/A   Clear
1:15 PM 46.9 °F - 38.5 °F 72% 30.08 in 10.0 mi Calm Calm - N/A   Clear
1:35 PM 48.0 °F - 39.2 °F 72% 30.08 in 10.0 mi Calm Calm - N/A   Clear
1:55 PM 49.3 °F - 39.9 °F 70% 30.07 in 10.0 mi Calm Calm - N/A   Clear
2:15 PM 49.6 °F - 39.9 °F 69% 30.08 in 10.0 mi SSW 3.5 mph - N/A   Clear
2:35 PM 50.0 °F - 39.6 °F 67% 30.08 in 10.0 mi West 3.5 mph - N/A   Clear
2:55 PM 50.5 °F - 39.9 °F 67% 30.08 in 10.0 mi NW 4.6 mph - N/A   Clear
3:15 PM 50.9 °F - 40.3 °F 67% 30.07 in 10.0 mi SW 3.5 mph - N/A   Clear
3:35 PM 51.1 °F - 39.9 °F 66% 30.06 in 10.0 mi Calm Calm - N/A   Clear
3:55 PM 51.4 °F - 40.1 °F 65% 30.06 in 10.0 mi Calm Calm - N/A   Clear
4:15 PM 51.6 °F - 40.8 °F 67% 30.06 in 10.0 mi Calm Calm - N/A   Clear
4:35 PM 51.3 °F - 40.5 °F 67% 30.05 in 10.0 mi Calm Calm - N/A   Clear
4:55 PM 51.3 °F - 40.8 °F 67% 30.06 in 10.0 mi Calm Calm - N/A   Clear
5:15 PM 50.9 °F - 41.5 °F 70% 30.05 in 10.0 mi Calm Calm - N/A   Clear
5:35 PM 50.0 °F - 43.3 °F 78% 30.06 in 10.0 mi Calm Calm - N/A   Clear
5:55 PM 49.3 °F - 43.3 °F 80% 30.06 in 10.0 mi Calm Calm - N/A   Clear
6:15 PM 47.3 °F - 43.0 °F 85% 30.07 in 10.0 mi Calm Calm - N/A   Clear
6:35 PM 45.3 °F - 43.0 °F 92% 30.07 in 10.0 mi Calm Calm - N/A   Clear
6:55 PM 43.7 °F - 42.6 °F 96% 30.09 in 10.0 mi Calm Calm - N/A   Clear
7:15 PM 41.9 °F - 41.9 °F 100% 30.09 in 10.0 mi Calm Calm - N/A   Clear
7:35 PM 41.9 °F - 41.9 °F 100% 30.09 in 10.0 mi Calm Calm - N/A   Clear
7:55 PM 40.6 °F - 40.6 °F 100% 30.10 in 10.0 mi Calm Calm - N/A   Clear
8:15 PM 39.2 °F - 39.2 °F 100% 30.10 in 10.0 mi Calm Calm - N/A   Clear
8:35 PM 39.2 °F - 39.2 °F 100% 30.09 in 10.0 mi Calm Calm - N/A   Clear
8:55 PM 37.9 °F - 37.9 °F 100% 30.10 in 7.0 mi Calm Calm - N/A   Clear
9:15 PM 37.4 °F - 37.4 °F 100% 30.10 in 10.0 mi Calm Calm - N/A   Clear
9:35 PM 36.5 °F - 36.5 °F 100% 30.11 in 7.0 mi Calm Calm - N/A   Clear
9:55 PM 37.0 °F - 37.0 °F 100% 30.11 in 5.0 mi Calm Calm - N/A   Clear
10:15 PM 36.7 °F - 36.7 °F 100% 30.11 in 7.0 mi Calm Calm - N/A   Clear
10:35 PM 37.0 °F - 37.0 °F 100% 30.12 in 5.0 mi Calm Calm - N/A   Clear
10:55 PM 36.5 °F - 36.5 °F 100% 30.13 in 5.0 mi Calm Calm - N/A   Clear
11:15 PM 37.0 °F - 37.0 °F 100% 30.13 in 10.0 mi Calm Calm - N/A   Clear
11:35 PM 36.0 °F - 36.0 °F 100% 30.12 in 4.0 mi Calm Calm - N/A   Clear
11:55 PM 35.6 °F - 35.6 °F 100% 30.12 in 2.5 mi Calm Calm - N/A   Clear